| time (UTC) | temp F | wind direction | speed MPH | gust MPH | rain 1hr in | rain 24hr in | rain mn in | humidity % | barometer mb |
| 20260506130014 | 53 | 136 | 0.0 | 0.0 | 0.00 | 0.00 | 0.00 | 91 | 1017.6 |
| 20260506124506 | 54 | 136 | 0.0 | 0.0 | 0.00 | 0.00 | 0.00 | 91 | 1017.5 |
| 20260506123006 | 54 | 136 | 0.0 | 0.0 | 0.00 | 0.00 | 0.00 | 91 | 1017.4 |
| 20260506121504 | 54 | 136 | 0.0 | 0.0 | 0.00 | 0.00 | 0.00 | 90 | 1017.2 |
| 20260506120003 | 55 | 136 | 0.0 | 0.0 | 0.00 | 0.00 | 0.00 | 90 | 1017.2 |
| 20260506114503 | 55 | 136 | 0.0 | 0.0 | 0.00 | 0.00 | 0.00 | 90 | 1017.2 |
| 20260506113002 | 55 | 136 | 0.0 | 0.0 | 0.00 | 0.00 | 0.00 | 91 | 1017.1 |
| 20260506111559 | 55 | 137 | 0.0 | 0.0 | 0.00 | 0.00 | 0.00 | 91 | 1017.1 |
| 20260506110101 | 56 | 137 | 0.0 | 0.0 | 0.00 | 0.00 | 0.00 | 90 | 1017.1 |
| 20260506104557 | 56 | 137 | 0.0 | 0.0 | 0.00 | 0.00 | 0.00 | 91 | 1017.2 |
| 20260506103056 | 56 | 137 | 0.0 | 0.0 | 0.00 | 0.00 | 0.00 | 90 | 1017.2 |
| 20260506101554 | 57 | 137 | 0.0 | 0.0 | 0.00 | 0.00 | 0.00 | 90 | 1017.1 |
| 20260506100054 | 57 | 137 | 0.0 | 0.0 | 0.00 | 0.00 | 0.00 | 89 | 1017.0 |
| 20260506094550 | 57 | 233 | 0.0 | 0.0 | 0.00 | 0.03 | 0.00 | 89 | 1017.1 |
| 20260506093052 | 57 | 233 | 0.0 | 0.0 | 0.00 | 0.03 | 0.00 | 88 | 1017.2 |
| 20260506091547 | 58 | 223 | 0.0 | 0.0 | 0.00 | 0.03 | 0.00 | 88 | 1017.2 |
| 20260506090046 | 58 | 223 | 0.0 | 0.0 | 0.00 | 0.03 | 0.00 | 88 | 1017.3 |
| 20260506084545 | 58 | 219 | 0.0 | 0.0 | 0.00 | 0.03 | 0.00 | 88 | 1017.4 |
| 20260506083045 | 59 | 213 | 0.0 | 0.0 | 0.00 | 0.03 | 0.00 | 89 | 1017.5 |
| 20260506081548 | 59 | 213 | 0.0 | 0.0 | 0.00 | 0.03 | 0.00 | 89 | 1017.5 |
| 20260506073040 | 59 | 269 | 0.0 | 3.0 | 0.00 | 0.03 | 0.00 | 88 | 1017.5 |
| 20260506071548 | 59 | 269 | 0.0 | 3.0 | 0.00 | 0.03 | 0.00 | 88 | 1017.5 |
| 20260506061535 | 60 | 259 | 0.0 | 6.0 | 0.00 | 0.03 | 0.03 | 87 | 1017.1 |
| 20260506044530 | 61 | 261 | 3.0 | 9.0 | 0.00 | 0.03 | 0.03 | 84 | 1016.3 |
| 20260506043023 | 61 | 244 | 5.0 | 9.0 | 0.00 | 0.03 | 0.03 | 84 | 1016.2 |
| 20260506041524 | 61 | 284 | 2.0 | 10.0 | 0.00 | 0.03 | 0.03 | 84 | 1016.2 |
| 20260506040020 | 61 | 240 | 6.0 | 11.0 | 0.00 | 0.03 | 0.03 | 83 | 1015.9 |
| 20260506034519 | 61 | 286 | 7.0 | 12.0 | 0.00 | 0.03 | 0.03 | 82 | 1015.6 |
| 20260506033018 | 62 | 281 | 5.0 | 11.0 | 0.00 | 0.03 | 0.03 | 82 | 1015.5 |
| 20260506031518 | 62 | 278 | 4.0 | 12.0 | 0.00 | 0.03 | 0.03 | 81 | 1015.3 |
| 20260506030020 | 62 | 289 | 9.0 | 15.0 | 0.00 | 0.03 | 0.03 | 81 | 1015.1 |
| 20260506024521 | 62 | 275 | 8.0 | 16.0 | 0.00 | 0.03 | 0.03 | 80 | 1014.8 |
| 20260506023016 | 62 | 265 | 9.0 | 15.0 | 0.00 | 0.03 | 0.03 | 80 | 1014.6 |
| 20260506021515 | 63 | 252 | 7.0 | 16.0 | 0.00 | 0.03 | 0.03 | 79 | 1014.4 |
| 20260506020014 | 63 | 277 | 7.0 | 15.0 | 0.00 | 0.03 | 0.03 | 78 | 1014.5 |
| 20260506014514 | 63 | 290 | 9.0 | 15.0 | 0.00 | 0.03 | 0.03 | 77 | 1014.3 |
| 20260506013013 | 64 | 315 | 9.0 | 18.0 | 0.00 | 0.03 | 0.03 | 74 | 1014.1 |
| 20260506011512 | 65 | 286 | 10.0 | 17.0 | 0.00 | 0.03 | 0.03 | 75 | 1014.2 |
| 20260506010012 | 64 | 259 | 7.0 | 18.0 | 0.00 | 0.03 | 0.03 | 75 | 1014.2 |
| 20260506004512 | 65 | 269 | 10.0 | 19.0 | 0.00 | 0.03 | 0.03 | 73 | 1014.1 |
| 20260506003011 | 66 | 275 | 14.0 | 21.0 | 0.00 | 0.03 | 0.03 | 72 | 1013.9 |
| 20260506001510 | 66 | 271 | 10.0 | 20.0 | 0.00 | 0.03 | 0.03 | 74 | 1014.1 |
| 20260506000010 | 66 | 258 | 11.0 | 19.0 | 0.00 | 0.03 | 0.03 | 71 | 1014.1 |
| 20260505234518 | 67 | 271 | 11.0 | 19.0 | 0.00 | 0.03 | 0.03 | 71 | 1014.1 |
| 20260505233015 | 67 | 268 | 13.0 | 19.0 | 0.00 | 0.03 | 0.03 | 69 | 1014.2 |
| 20260505231511 | 66 | 267 | 12.0 | 23.0 | 0.00 | 0.03 | 0.03 | 69 | 1014.2 |
| 20260505230009 | 66 | 266 | 10.0 | 20.0 | 0.00 | 0.03 | 0.03 | 71 | 1014.3 |
| 20260505224507 | 68 | 252 | 12.0 | 18.0 | 0.00 | 0.03 | 0.03 | 67 | 1014.4 |
| 20260505223010 | 68 | 236 | 11.0 | 18.0 | 0.00 | 0.03 | 0.03 | 67 | 1014.4 |
| 20260505221505 | 68 | 214 | 11.0 | 21.0 | 0.00 | 0.03 | 0.03 | 66 | 1014.7 |
| 20260505220008 | 68 | 284 | 6.0 | 17.0 | 0.00 | 0.03 | 0.03 | 68 | 1014.7 |
| 20260505214540 | 68 | 246 | 10.0 | 16.0 | 0.00 | 0.03 | 0.03 | 67 | 1014.8 |
| 20260505213002 | 68 | 232 | 5.0 | 16.0 | 0.00 | 0.03 | 0.03 | 68 | 1014.9 |
| 20260505211502 | 68 | 290 | 9.0 | 18.0 | 0.00 | 0.03 | 0.03 | 65 | 1015.1 |
| 20260505210003 | 68 | 223 | 6.0 | 14.0 | 0.00 | 0.03 | 0.03 | 65 | 1015.1 |
| 20260505204601 | 68 | 240 | 6.0 | 12.0 | 0.00 | 0.03 | 0.03 | 67 | 1015.1 |
| 20260505203055 | 68 | 226 | 5.0 | 11.0 | 0.00 | 0.03 | 0.03 | 68 | 1015.0 |
| 20260505201602 | 68 | 242 | 5.0 | 14.0 | 0.00 | 0.03 | 0.03 | 67 | 1015.1 |
| 20260505200101 | 68 | 278 | 6.0 | 12.0 | 0.00 | 0.03 | 0.03 | 66 | 1015.2 |
| 20260505194555 | 67 | 261 | 7.0 | 16.0 | 0.00 | 0.03 | 0.03 | 68 | 1015.3 |
| 20260505193046 | 67 | 227 | 5.0 | 14.0 | 0.00 | 0.03 | 0.03 | 68 | 1015.4 |
| 20260505191545 | 67 | 208 | 5.0 | 14.0 | 0.00 | 0.03 | 0.03 | 70 | 1015.5 |
| 20260505190049 | 67 | 227 | 5.0 | 15.0 | 0.00 | 0.03 | 0.03 | 69 | 1015.4 |
| 20260505184544 | 66 | 223 | 9.0 | 15.0 | 0.00 | 0.03 | 0.03 | 70 | 1015.5 |
| 20260505183048 | 65 | 242 | 7.0 | 15.0 | 0.00 | 0.03 | 0.03 | 71 | 1015.5 |
| 20260505181541 | 67 | 235 | 7.0 | 15.0 | 0.00 | 0.03 | 0.03 | 67 | 1015.3 |
| 20260505180038 | 67 | 232 | 6.0 | 14.0 | 0.00 | 0.03 | 0.03 | 69 | 1015.3 |
| 20260505174535 | 67 | 231 | 4.0 | 13.0 | 0.00 | 0.03 | 0.03 | 69 | 1015.2 |
| 20260505173039 | 65 | 198 | 5.0 | 15.0 | 0.00 | 0.03 | 0.03 | 71 | 1015.1 |
| 20260505171535 | 65 | 254 | 9.0 | 15.0 | 0.00 | 0.03 | 0.03 | 70 | 1014.9 |
| 20260505170034 | 65 | 271 | 8.0 | 15.0 | 0.00 | 0.03 | 0.03 | 72 | 1014.9 |
| 20260505164526 | 64 | 261 | 6.0 | 12.0 | 0.00 | 0.03 | 0.03 | 73 | 1014.7 |
| 20260505163026 | 64 | 248 | 8.0 | 14.0 | 0.00 | 0.03 | 0.03 | 73 | 1014.5 |
| 20260505161527 | 63 | 252 | 4.0 | 12.0 | 0.00 | 0.03 | 0.03 | 74 | 1014.4 |
| 20260505153016 | 61 | 285 | 4.0 | 9.0 | 0.00 | 0.03 | 0.03 | 83 | 1014.3 |
| 20260505151510 | 59 | 275 | 3.0 | 11.0 | 0.00 | 0.03 | 0.03 | 84 | 1014.2 |